Find Starlink 32711

NORAD ID: 62435 Int'l Des: 2024-251 Owner: SPXS Country: US Constellation: starlink operational
LEOCIRCULAR

Current View

Loading 3D Globe...

About Starlink 32711

Starlink 32711 (NORAD 62435) is a starlink constellation satellite (v2 mini) launched Dec 29, 2024 by SPXS of US. It operates in LEO, CIRCULAR orbit with a mass of 730.00 kg.

About Starlink 32711

Description loading...

Upcoming Passes

Passes for default location (London). Set your location on the main map for personalized predictions.

Altitude History

Loading altitude history...

Two-Line Element Set

1 62435U 24251D 26173.49700649 .00012426 00000-0 43092-3 0 9998
2 62435 53.1583 208.5715 0001112 97.0788 263.0339 15.30203400 83992
Epoch: Jun 22, 2026 • Age: 31 hours

Current Status

Altitude 475.6 km
Velocity 7.63 km/s
Sub-Earth Point 22.37°N, 17.34°E
Launch Date Dec 29, 2024
Age 1.4 years
Type internet

Technical Details

Classification Payload
Mass 730.00 kg
Dry Mass 700.00 kg
Total Mass 730.00 kg
Length 0.30 m
Diameter 4.10 m
Span 29.00 m
Shape Box + pan
Manufacturer SPXS
Bus Type Starlink V2M
Phase Status In Orbit
Owner/State SPXS/US

Most Searched